sat.trackr.live / text

‹ back to catalog

STARLINK-31233

NORAD 58826 · 2024-017A

PAYLOAD ACTIVE UNKNOWN

§ Identity

Operator
Country
US
Launch date
2024-01-24
Launch site
AFWTR
Launch vehicle
Mass (kg)
RCS (m²)

Purposes: comms

External: N2YO · Heavens-Above · Gunter

§ Orbital elements

Epoch: 2026-09-20T14:32:44.707200Z

Period
93.85 min
Inclination
53.1621°
Eccentricity
0.0001078
Mean motion
15.34390750 rev/d
Perigee alt
462.0 km
Apogee alt
463.5 km
Semi-major
6,840.9 km
B*
1.8622e-5
RAAN
17.1985°
Arg perigee
85.7488°
Mean anomaly
274.3638°
Rev number
15,004

§ Raw data

STARLINK-312331 58826U 24017A   26263.60607300  .00000253  00000+0  18622-4 0  99962 58826  53.1621  17.1985 0001078  85.7488 274.3638 15.34390750150046

JSON: /api/v1/satellites/58826 · /tle

For live sub-satellite position, see the globe view (requires WebGL).

§ Visibility from observer

Set your observer location to see the next 7 days of passes ≥ 10°. The values pass through the URL so the page stays shareable.

No JS? Fill the form by hand. The geolocation button needs JavaScript.